Regional Weather Roundup
Issued by NWS Mobile, AL

Home | Current Version | Previous Version | Text Only | Print | Product List | Glossary On
Versions: 1 2 3 4 5 6 7 8 9 10 11 12 13 14 15 16 17 18 19 20 21 22 23 24 25 26 27 28
000
ASUS44 KMOB 251413
RWRMOB
REGIONAL WEATHER ROUNDUP
NATIONAL WEATHER SERVICE MOBILE AL
900 AM CDT MON SEP 25 2017

NOTE: "FAIR" INDICATES FEW OR NO CLOUDS BELOW 12,000 FEET WITH NO
      SIGNIFICANT WEATHER AND/OR OBSTRUCTIONS TO VISIBILITY.

  * THESE STATIONS ARE PART OF THE UNIVERSITY OF SOUTH ALABAMA
    MESONET AND ARE NOT UNDER NWS OR FAA QUALITY CONTROL.

ALZ061>064-251500-
COASTAL ALABAMA

CITY           SKY/WX    TMP DP  RH WIND       PRES   REMARKS
MOBILE REG APT PTSUNNY   74  69  85 E10       29.96R
BROOKLEY FIELD CLOUDY    77  72  84 NE12      29.96R
USA CAMPUS*    NOT AVBL
DOG RIVER*     NOT AVBL


CITY           SKY/WX    TMP DP  RH WIND       PRES   REMARKS
GULF SHORES    PTSUNNY   75  71  88 E9        29.94S

$$

ALZ051>060-251500-
INTERIOR SOUTHWEST AND SOUTH CENTRAL ALABAMA

CITY           SKY/WX    TMP DP  RH WIND       PRES   REMARKS
GREENVILLE     LGT RAIN  74  67  78 CALM      29.99S
EVERGREEN      RAIN      71  69  93 NE3       29.99S
ATMORE*        NOT AVBL
ANDALUSIA/OPP  CLOUDY    76  69  79 CALM      29.98S
ANDALUSIA*     NOT AVBL
FLORALA APT    NOT AVBL
FLORALA*       NOT AVBL

$$

FLZ001>006-251500-
WESTERN FLORIDA PANHANDLE

CITY           SKY/WX    TMP DP  RH WIND       PRES   REMARKS
PENSACOLA      MOSUNNY   76  69  79 VRB7      29.95R
NAS PENSACOLA  NOT AVBL
MILTON         CLOUDY    71  70  96 NE6       29.96R
WHTNG S FIELD  NOT AVBL


CITY           SKY/WX    TMP DP  RH WIND       PRES   REMARKS
JAY*           NOT AVBL
DUKE FIELD     PTSUNNY   71  69  95 NE5       29.96S
CRESTVIEW      LGT RAIN  71  69  93 NE3       29.98R
VALPARAISO     LGT RAIN  72  70  94 NE5       29.95R
DESTIN         LGT RAIN  76  70  82 NE5       29.95R

$$

MSZ076-079-251500-
INTERIOR SOUTHEAST MISSISSIPPI

CITY           SKY/WX    TMP DP  RH WIND       PRES   REMARKS
LEAKESVILLE*   NOT AVBL
AGRICOLA*      NOT AVBL

$$

MARINE OBSERVATIONS

STATION/POSITION TIME  TEMP    WIND        PRES    WAVE
                       AIR SEA DIR/SP/G            HT/PER
                 (UTC) (F)     (DEG/KT/KT) (MB)    (FT/S)
PASCAGOULA       1348   77      70/  9/ 12 1013.6R
PETIT BOIS ISLND 1348   77      80/ 14/ 18 1014.4R
GRAND BAY        1230   75      70/  9     1014.0S
KATRINA CUT      1330   77      80/ 16     1013.5R
CEDAR POINT      1330   77      90/ 14     1013.5R
E DAUPHIN ISLAND 1300   76      70/ 17/ 19 1013.0R
MIDDLE BAY LIGHT 1330   76      70/ 18     1013.5R
USCG MOBILE BAY  1348   73 84   60/  9/ 12 1014.2R
STATE DOCKS      1348   75 82              1014.1R
MEAHER PARK      1330   73      20/  4     1013.5F
WEEKS BAY        1245   73                 1013.0S
FORT MORGAN      1348   76      90/ 14/ 18   N/A
12 S ORANGE BCH  1350   78 81   80/ 17/ 19 1013.2R   3/ 4
PENSACOLA BAY    1348   74 82              1014.2R
64 S DAUPHIN ISL 1400   80 82   60/ 10/ 12 1012.9
67 S FORT MORGAN 1330   81      50/  4     1012.2S

$$

SELECTED LOCATIONS ACROSS THE REGION

CITY           SKY/WX    TMP DP  RH WIND       PRES   REMARKS
NEW ORLEANS    MOSUNNY   80  71  74 NE10      29.92S
GULFPORT       SUNNY     76  71  85 NE6       29.93R
PASCAGOULA AP  PTSUNNY   75  69  81 E5        29.94R
PASCAGOULA*    NOT AVBL
HATTIESBURG    PTSUNNY   75  71  87 CALM      29.98R
LAUREL         CLOUDY    72  70  93 NE6       29.98S
MERIDIAN       CLOUDY    73  71  93 N5        29.99S
JACKSON        PTSUNNY   72  69  90 NE3       29.99S
MONTGOMERY     CLOUDY    77  66  68 E6        30.01R
TROY           CLOUDY    76  70  82 SE3       30.00F
ASHFORD*       NOT AVBL
DOTHAN         MOSUNNY   78  71  79 NE3       30.01S
PANAMA CITY    CLOUDY    73  69  87 CALM      29.95R

$$





USA.gov is the U.S. government's official web portal to all federal, state and local government web resources and services.